Cody, WY

7:40 PM MST on February 11, 2016 (GMT -0700)
Yellowstone Regional

Weather History for KCOD - November, 2013

Change the Weather History Date:

Tuesday, November 12, 2013

  Actual Average (KGEY) Record (KGEY)
Temperature  
Mean Temperature 40 °F 33 °F  
Max Temperature 59 °F 46 °F 69 °F (1999)
Min Temperature 21 °F 20 °F -15 °F (2000)
Degree Days  
Heating Degree Days 25 32  
Month to date heating degree days 347  
Since 1 July heating degree days 1169  
Cooling Degree Days 0 0  
Month to date cooling degree days 0  
Year to date cooling degree days 669  
Moisture  
Dew Point 27 °F    
Average Humidity 70    
Maximum Humidity 100    
Minimum Humidity 36    
Precipitation  
Precipitation 0.00 in 0.01 in 0.06 in (2008)
Month to date precipitation 0.11  
Year to date precipitation 7.04  
Sea Level Pressure  
Sea Level Pressure 30.39 in    
Wind  
Wind Speed 2 mph (NNE)    
Max Wind Speed 10 mph    
Max Gust Speed -    
Visibility 10 miles    
Events      
T = Trace of Precipitation, MM = Missing Value Source: NWS Daily Summary

Daily Weather History Graph

Daily Weather History Graph

Search for Another Location

Airport or City:

Trip Planner

Search our weather history database for the weather conditions in past years. The results will help you decide how hot, cold, wet, or windy it might be!

Date:

Astronomy

Nov. 12, 2013 Rise Set
Actual Time 7:08 AM MST 4:51 PM MST
Civil Twilight 6:37 AM MST 5:22 PM MST
Nautical Twilight 6:02 AM MST 5:57 PM MST
Astronomical Twilight 5:28 AM MST 6:31 PM MST
Moon 2:17 PM MST 1:50 AM MST
Length of Visible Light 10h 44m
Length of Day
9h 42m
Waxing Gibbous, 77% of the Moon is Illuminated
Nov 12
Waxing Gibbous
Nov 17
Full
Nov 25
Last Quarter
Dec 2
New
Dec 9
First Quarter

Hourly Weather History & Observations

Time (MST) Temp. Windchill Dew Point Humidity Pressure Visibility Wind Dir Wind Speed Gust Speed Precip Events Conditions
12:15 AM 26.6 °F 17.5 °F 24.8 °F 93% 30.49 in 10.0 mi SSE 9.2 mph - N/A   Clear
12:35 AM 24.8 °F - 23.0 °F 93% 30.48 in 10.0 mi Calm Calm - N/A   Clear
12:55 AM 24.8 °F - 21.2 °F 86% 30.49 in 10.0 mi Calm Calm - N/A   Clear
1:15 AM 24.8 °F - 23.0 °F 93% 30.48 in 10.0 mi Calm Calm - N/A   Clear
1:35 AM 24.8 °F - 23.0 °F 93% 30.48 in 10.0 mi Calm Calm - N/A   Clear
1:55 AM 23.0 °F - 19.4 °F 86% 30.48 in 10.0 mi Calm Calm - N/A   Clear
2:15 AM 24.8 °F - 24.8 °F 100% 30.48 in 10.0 mi Calm Calm - N/A   Clear
2:35 AM 23.0 °F - 19.4 °F 86% 30.48 in 7.0 mi Calm Calm - N/A   Clear
2:55 AM 23.0 °F - 21.2 °F 93% 30.48 in 10.0 mi Calm Calm - N/A   Clear
3:15 AM 24.8 °F - 23.0 °F 93% 30.48 in 10.0 mi Calm Calm - N/A   Clear
3:35 AM 26.6 °F - 24.8 °F 93% 30.49 in 10.0 mi Calm Calm - N/A   Clear
3:55 AM 24.8 °F - 23.0 °F 93% 30.49 in 10.0 mi Calm Calm - N/A   Clear
4:15 AM 24.8 °F - 21.2 °F 86% 30.48 in 10.0 mi Calm Calm - N/A   Clear
4:35 AM 24.8 °F 19.1 °F 21.2 °F 86% 30.48 in 10.0 mi South 4.6 mph - N/A   Clear
4:55 AM 23.0 °F - 21.2 °F 93% 30.48 in 10.0 mi Calm Calm - N/A   Clear
5:15 AM 24.8 °F - 21.2 °F 86% 30.48 in 10.0 mi Calm Calm - N/A   Clear
5:35 AM 23.0 °F - 21.2 °F 93% 30.47 in 10.0 mi Calm Calm - N/A   Clear
5:55 AM 24.8 °F - 23.0 °F 93% 30.47 in 10.0 mi Calm Calm - N/A   Clear
6:15 AM 24.8 °F - 23.0 °F 93% 30.46 in 10.0 mi Calm Calm - N/A   Clear
6:35 AM 24.8 °F 20.5 °F 24.8 °F 100% 30.46 in 10.0 mi WSW 3.5 mph - N/A   Clear
6:55 AM 21.2 °F - 17.6 °F 86% 30.45 in 10.0 mi Calm Calm - N/A   Clear
7:15 AM 24.8 °F - 23.0 °F 93% 30.46 in 10.0 mi Calm Calm - N/A   Clear
7:35 AM 24.8 °F - 23.0 °F 93% 30.46 in 10.0 mi Calm Calm - N/A   Clear
7:55 AM 26.6 °F - 24.8 °F 93% 30.46 in 10.0 mi Calm Calm - N/A   Clear
8:15 AM 28.4 °F 24.6 °F 26.6 °F 93% 30.46 in 10.0 mi NNW 3.5 mph - N/A   Clear
8:35 AM 30.2 °F 25.4 °F 26.6 °F 86% 30.45 in 10.0 mi ENE 4.6 mph - N/A   Clear
8:55 AM 35.6 °F - 32.0 °F 87% 30.45 in 10.0 mi Calm Calm - N/A   Clear
9:15 AM 39.2 °F - 33.8 °F 81% 30.44 in 10.0 mi Calm Calm - N/A   Clear
9:35 AM 41.0 °F - 28.4 °F 61% 30.44 in 10.0 mi Calm Calm - N/A   Clear
9:55 AM 42.8 °F - 28.4 °F 57% 30.44 in 10.0 mi Calm Calm - N/A   Clear
10:15 AM 42.8 °F - 30.2 °F 61% 30.44 in 10.0 mi Calm Calm - N/A   Clear
10:35 AM 42.8 °F - 30.2 °F 61% 30.43 in 10.0 mi Calm Calm - N/A   Clear
10:55 AM 46.4 °F 45.2 °F 30.2 °F 53% 30.42 in 10.0 mi North 3.5 mph - N/A   Clear
11:15 AM 48.2 °F - 32.0 °F 54% 30.42 in 10.0 mi North 4.6 mph - N/A   Clear
11:35 AM 51.8 °F - 33.8 °F 50% 30.41 in 10.0 mi East 5.8 mph - N/A   Clear
11:55 AM 53.6 °F - 33.8 °F 47% 30.40 in 10.0 mi Calm Calm - N/A   Clear
12:15 PM 53.6 °F - 33.8 °F 47% 30.39 in 10.0 mi NNW 5.8 mph - N/A   Clear
12:35 PM 51.8 °F - 33.8 °F 50% 30.38 in 10.0 mi North 5.8 mph - N/A   Clear
12:55 PM 53.6 °F - 33.8 °F 47% 30.37 in 10.0 mi North 4.6 mph - N/A   Clear
1:15 PM 53.6 °F - 33.8 °F 47% 30.37 in 10.0 mi North 5.8 mph - N/A   Clear
1:55 PM 55.4 °F - 33.8 °F 44% 30.35 in 10.0 mi North 4.6 mph - N/A   Clear
2:15 PM 57.2 °F - 33.8 °F 41% 30.34 in 10.0 mi NNW 5.8 mph - N/A   Clear
2:35 PM 59.0 °F - 33.8 °F 39% 30.34 in 10.0 mi East 10.4 mph - N/A   Clear
3:15 PM 57.2 °F - 30.2 °F 36% 30.33 in 10.0 mi East 5.8 mph - N/A   Clear
3:35 PM 57.2 °F - 30.2 °F 36% 30.32 in 10.0 mi East 4.6 mph - N/A   Clear
3:55 PM 57.2 °F - 30.2 °F 36% 30.32 in 10.0 mi ESE 5.8 mph - N/A   Clear
4:35 PM 51.8 °F - 30.2 °F 44% 30.31 in 10.0 mi Calm Calm - N/A   Clear
4:55 PM 48.2 °F - 30.2 °F 50% 30.31 in 10.0 mi Calm Calm - N/A   Clear
5:15 PM 46.4 °F 45.2 °F 28.4 °F 50% 30.31 in 10.0 mi South 3.5 mph - N/A   Clear
5:35 PM 44.6 °F 43.1 °F 28.4 °F 53% 30.32 in 10.0 mi ESE 3.5 mph - N/A   Clear
5:55 PM 41.0 °F - 28.4 °F 61% 30.31 in 10.0 mi Calm Calm - N/A   Clear
6:15 PM 41.0 °F - 28.4 °F 61% 30.31 in 10.0 mi Calm Calm - N/A   Clear
6:35 PM 39.2 °F - 26.6 °F 61% 30.31 in 10.0 mi Calm Calm - N/A   Clear
7:15 PM 37.4 °F 33.8 °F 26.6 °F 65% 30.31 in 10.0 mi South 4.6 mph - N/A   Clear
7:35 PM - - - N/A% 30.31 in 10.0 mi WSW 3.5 mph - N/A   Clear
7:55 PM 37.4 °F - 26.6 °F 65% 30.30 in 10.0 mi Calm Calm - N/A   Clear
8:15 PM 39.2 °F - 28.4 °F 65% 30.30 in 10.0 mi Calm Calm - N/A   Clear
8:35 PM 39.2 °F - 28.4 °F 65% 30.30 in 10.0 mi Calm Calm - N/A   Clear
8:55 PM 42.8 °F - 28.4 °F 57% 30.30 in 10.0 mi Calm Calm - N/A   Clear
9:15 PM 39.2 °F - 28.4 °F 65% 30.29 in 10.0 mi Calm Calm - N/A   Clear
9:35 PM 39.2 °F 37.0 °F 28.4 °F 65% 30.29 in 10.0 mi NNW 3.5 mph - N/A   Clear
9:55 PM 39.2 °F 34.2 °F 28.4 °F 65% 30.28 in 10.0 mi North 6.9 mph - N/A   Clear
10:15 PM 35.6 °F - 28.4 °F 75% 30.28 in 10.0 mi Calm Calm - N/A   Clear
10:35 PM 35.6 °F - 26.6 °F 70% 30.27 in 10.0 mi Calm Calm - N/A   Clear
10:55 PM 37.4 °F 30.8 °F 26.6 °F 65% 30.27 in 10.0 mi North 9.2 mph - N/A   Clear
11:15 PM 37.4 °F - 26.6 °F 65% 30.27 in 10.0 mi Calm Calm - N/A   Clear
11:35 PM 42.8 °F - 26.6 °F 53% 30.27 in 10.0 mi Calm Calm - N/A   Clear